�������l�o���
Date,Time,MP-1(��Sv/h),MP-2(��Sv/h),MP-3(��Sv/h),MP-4(��Sv/h),MP-5(��Sv/h),MP-6(��Sv/h),MP-7(��Sv/h),MP-8(��Sv/h),����,����(m/s),���J
2024/04/04,00:00,0.492,0.737,0.478,0.914,0.656,0.315,0.539,0.510,�k�k��,5.5,�L
2024/04/04,00:10,0.492,0.737,0.476,0.913,0.654,0.316,0.539,0.510,�k�k��,5.1,�L
2024/04/04,00:20,0.492,0.737,0.478,0.913,0.653,0.316,0.540,0.509,�k,5.2,�L
2024/04/04,00:30,0.491,0.737,0.477,0.912,0.654,0.316,0.539,0.510,�k�k��,6.1,�L
2024/04/04,00:40,0.491,0.737,0.477,0.912,0.653,0.317,0.538,0.509,�k�k��,6.1,�L
2024/04/04,00:50,0.491,0.737,0.477,0.913,0.651,0.316,0.538,0.511,�k�k��,5.4,�L
2024/04/04,01:00,0.492,0.736,0.477,0.911,0.652,0.316,0.540,0.509,�k�k��,5.2,�L
2024/04/04,01:10,0.490,0.735,0.477,0.908,0.652,0.318,0.540,0.509,�k�k��,6.3,�L
2024/04/04,01:20,0.492,0.734,0.477,0.909,0.652,0.317,0.539,0.510,�k�k��,5.7,�L
2024/04/04,01:30,0.490,0.735,0.477,0.910,0.652,0.314,0.541,0.509,�k�k��,6.1,�L
2024/04/04,01:40,0.490,0.733,0.476,0.908,0.651,0.315,0.540,0.509,�k�k��,6.3,�L
2024/04/04,01:50,0.487,0.733,0.474,0.909,0.652,0.314,0.539,0.508,�k�k��,6.1,�L
2024/04/04,02:00,0.489,0.732,0.475,0.908,0.650,0.314,0.540,0.511,�k�k��,6.6,�L
2024/04/04,02:10,0.489,0.735,0.474,0.908,0.650,0.313,0.540,0.508,�k�k��,7.2,�L
2024/04/04,02:20,0.488,0.736,0.473,0.908,0.650,0.312,0.540,0.509,�k�k��,7.3,�L
2024/04/04,02:30,0.488,0.734,0.473,0.908,0.652,0.314,0.540,0.511,�k�k��,7.3,�L
2024/04/04,02:40,0.487,0.732,0.472,0.908,0.650,0.312,0.540,0.507,�k�k��,7.4,�L
2024/04/04,02:50,0.490,0.734,0.472,0.909,0.652,0.313,0.539,0.509,�k�k��,8.1,�L
2024/04/04,03:00,0.489,0.734,0.474,0.909,0.651,0.313,0.540,0.509,�k�k��,8.6,�L
2024/04/04,03:10,0.487,0.734,0.473,0.908,0.651,0.313,0.541,0.509,�k�k��,8.3,�L
2024/04/04,03:20,0.488,0.732,0.473,0.907,0.649,0.312,0.541,0.511,�k�k��,8.7,�L
2024/04/04,03:30,0.488,0.732,0.472,0.907,0.649,0.311,0.541,0.508,�k�k��,8.3,�L
2024/04/04,03:40,0.485,0.734,0.469,0.907,0.652,0.309,0.540,0.509,�k�k��,7.7,��
2024/04/04,03:50,0.483,0.731,0.470,0.907,0.649,0.309,0.541,0.508,�k�k��,7.8,��
2024/04/04,04:00,0.486,0.734,0.469,0.908,0.649,0.308,0.539,0.509,�k�k��,7.4,��
2024/04/04,04:10,0.483,0.732,0.468,0.908,0.647,0.308,0.540,0.509,�k�k��,8.1,��
2024/04/04,04:20,0.483,0.730,0.469,0.906,0.648,0.307,0.539,0.508,�k�k��,7.8,��
2024/04/04,04:30,0.483,0.734,0.466,0.907,0.648,0.307,0.539,0.509,�k�k��,8.1,��
2024/04/04,04:40,0.484,0.731,0.466,0.905,0.646,0.306,0.538,0.510,�k�k��,7.5,��
2024/04/04,04:50,0.484,0.732,0.466,0.906,0.648,0.306,0.539,0.508,�k�k��,7.8,��
2024/04/04,05:00,0.484,0.731,0.470,0.907,0.648,0.306,0.540,0.508,�k�k��,8.9,��
2024/04/04,05:10,0.484,0.732,0.467,0.908,0.649,0.307,0.539,0.509,�k�k��,9.2,��
2024/04/04,05:20,0.483,0.731,0.467,0.907,0.648,0.307,0.538,0.509,�k�k��,9.0,��
2024/04/04,05:30,0.484,0.732,0.467,0.909,0.649,0.306,0.538,0.508,�k�k��,8.5,��
2024/04/04,05:40,0.483,0.733,0.467,0.905,0.648,0.308,0.540,0.508,�k�k��,7.5,��
2024/04/04,05:50,0.484,0.731,0.467,0.907,0.649,0.307,0.540,0.509,�k�k��,7.4,��
2024/04/04,06:00,0.484,0.732,0.468,0.908,0.650,0.307,0.540,0.507,�k�k��,5.7,��
2024/04/04,06:10,0.483,0.733,0.467,0.907,0.649,0.307,0.540,0.508,�k��,5.9,��
2024/04/04,06:20,0.483,0.733,0.468,0.907,0.650,0.305,0.539,0.509,�k�k��,5.9,��
2024/04/04,06:30,0.485,0.733,0.468,0.908,0.648,0.307,0.540,0.509,�k�k��,7.1,��
2024/04/04,06:40,0.483,0.735,0.468,0.907,0.648,0.307,0.541,0.508,�k�k��,8.3,��
2024/04/04,06:50,0.484,0.734,0.467,0.909,0.649,0.308,0.541,0.509,�k��,7.5,��
2024/04/04,07:00,0.485,0.734,0.467,0.909,0.649,0.307,0.539,0.510,�k��,7.0,��
2024/04/04,07:10,0.485,0.735,0.468,0.909,0.651,0.306,0.541,0.508,�k��,5.2,��
2024/04/04,07:20,0.485,0.736,0.468,0.909,0.649,0.307,0.542,0.508,�k��,5.4,��
2024/04/04,07:30,0.484,0.735,0.468,0.908,0.651,0.307,0.542,0.509,�k�k��,5.0,��
2024/04/04,07:40,0.484,0.733,0.468,0.909,0.651,0.306,0.542,0.510,�k��,6.4,��
2024/04/04,07:50,0.484,0.734,0.468,0.910,0.650,0.305,0.541,0.509,�k�k��,6.0,��
2024/04/04,08:00,0.486,0.733,0.468,0.911,0.651,0.306,0.540,0.510,�k�k��,6.4,��
2024/04/04,08:10,0.485,0.732,0.468,0.909,0.652,0.306,0.540,0.509,�k�k��,5.1,��
2024/04/04,08:20,0.486,0.732,0.469,0.909,0.651,0.306,0.541,0.511,�k�k��,5.6,��
2024/04/04,08:30,0.486,0.733,0.468,0.912,0.651,0.305,0.541,0.508,�k�k��,4.9,��
2024/04/04,08:40,0.488,0.734,0.470,0.911,0.653,0.306,0.540,0.509,�k�k��,5.1,��
2024/04/04,08:50,0.487,0.734,0.469,0.910,0.652,0.306,0.542,0.509,�k�k��,5.2,��
2024/04/04,09:00,0.486,0.735,0.468,0.913,0.654,0.305,0.542,0.509,�k�k��,5.2,��
2024/04/04,09:10,0.485,0.734,0.470,0.912,0.653,0.306,0.542,0.508,�k�k��,4.5,��
2024/04/04,09:20,0.486,0.735,0.469,0.911,0.651,0.306,0.543,0.507,�k,4.2,��
2024/04/04,09:30,0.484,0.736,0.470,0.912,0.654,0.307,0.541,0.506,�k�k��,4.1,��
2024/04/04,09:40,0.487,0.735,0.471,0.912,0.652,0.306,0.542,0.508,�k�k��,3.7,��
2024/04/04,09:50,0.486,0.738,0.470,0.913,0.654,0.305,0.542,0.506,�k�k��,3.9,��
2024/04/04,10:00,0.484,0.737,0.471,0.912,0.653,0.305,0.544,0.507,�k��,4.2,��
2024/04/04,10:10,0.483,0.737,0.470,0.912,0.654,0.305,0.542,0.507,�k�k��,4.2,��
2024/04/04,10:20,0.484,0.735,0.471,0.912,0.653,0.306,0.542,0.508,�k�k��,5.6,��
2024/04/04,10:30,0.483,0.738,0.472,0.915,0.655,0.307,0.544,0.508,�k�k��,5.5,��
2024/04/04,10:40,0.487,0.738,0.471,0.913,0.653,0.307,0.544,0.507,�k�k��,5.3,��
2024/04/04,10:50,0.487,0.737,0.471,0.912,0.654,0.306,0.542,0.508,�k�k��,5.6,��
2024/04/04,11:00,0.488,0.741,0.472,0.913,0.654,0.306,0.543,0.508,�k�k��,5.5,��
2024/04/04,11:10,0.486,0.739,0.470,0.913,0.654,0.306,0.543,0.509,�k,5.9,��
2024/04/04,11:20,0.485,0.739,0.470,0.916,0.655,0.308,0.543,0.508,�k�k��,6.7,��
2024/04/04,11:30,0.488,0.740,0.470,0.915,0.656,0.308,0.544,0.509,�k�k��,7.1,��
2024/04/04,11:40,0.488,0.742,0.470,0.915,0.659,0.307,0.544,0.511,�k�k��,6.3,��
2024/04/04,11:50,0.488,0.744,0.473,0.915,0.655,0.307,0.545,0.508,�k,5.5,��
2024/04/04,12:00,0.489,0.743,0.471,0.916,0.655,0.308,0.544,0.510,�k�k��,4.4,��
2024/04/04,12:10,0.491,0.742,0.473,0.916,0.656,0.308,0.545,0.509,�k�k��,4.8,��
2024/04/04,12:20,0.490,0.745,0.472,0.917,0.659,0.309,0.543,0.508,�k��,4.5,��
2024/04/04,12:30,0.490,0.743,0.472,0.917,0.659,0.307,0.543,0.509,�k��,3.8,��
2024/04/04,12:40,0.491,0.742,0.474,0.917,0.660,0.307,0.543,0.509,�k��,3.7,��
2024/04/04,12:50,0.491,0.746,0.472,0.917,0.659,0.307,0.545,0.509,���k��,2.8,��
2024/04/04,13:00,0.492,0.746,0.472,0.917,0.658,0.307,0.544,0.511,���k��,3.4,��
2024/04/04,13:10,0.488,0.744,0.473,0.918,0.658,0.307,0.542,0.511,�k��,2.5,��
2024/04/04,13:20,0.492,0.742,0.476,0.915,0.660,0.307,0.545,0.510,�k��,3.1,��
2024/04/04,13:30,0.492,0.745,0.474,0.918,0.660,0.309,0.545,0.509,�k��,2.0,��
2024/04/04,13:40,0.490,0.745,0.472,0.917,0.660,0.308,0.543,0.509,���쓌,0.9,��
2024/04/04,13:50,0.490,0.744,0.474,0.920,0.660,0.307,0.545,0.510,���k��,0.9,��
2024/04/04,14:00,0.491,0.745,0.473,0.917,0.659,0.307,0.544,0.509,��,1.4,��
2024/04/04,14:10,0.490,0.746,0.473,0.917,0.662,0.309,0.544,0.508,���k��,1.4,��
2024/04/04,14:20,0.491,0.745,0.475,0.916,0.659,0.307,0.543,0.509,���쓌,1.1,��
2024/04/04,14:30,0.492,0.745,0.473,0.919,0.660,0.306,0.544,0.509,���쓌,1.1,��
2024/04/04,14:40,0.491,0.746,0.474,0.919,0.661,0.309,0.545,0.509,�k��,1.2,��
2024/04/04,14:50,0.491,0.746,0.475,0.919,0.662,0.308,0.544,0.509,���k��,1.4,��
2024/04/04,15:00,0.491,0.745,0.475,0.920,0.660,0.307,0.545,0.509,���k��,1.2,��
2024/04/04,15:10,0.492,0.747,0.474,0.919,0.660,0.308,0.545,0.509,��,1.2,��
2024/04/04,15:20,0.490,0.747,0.473,0.918,0.661,0.308,0.546,0.509,��쓌,2.6,��
2024/04/04,15:30,0.491,0.748,0.475,0.918,0.660,0.308,0.545,0.510,��,0.8,��
2024/04/04,15:40,0.491,0.747,0.475,0.918,0.663,0.308,0.545,0.510,�k��,1.7,��
2024/04/04,15:50,0.491,0.744,0.475,0.919,0.664,0.308,0.545,0.510,�k��,1.5,��
2024/04/04,16:00,0.492,0.745,0.474,0.918,0.660,0.307,0.544,0.510,��,1.5,��
2024/04/04,16:10,0.492,0.745,0.475,0.919,0.661,0.308,0.544,0.510,�k�k��,1.5,��
2024/04/04,16:20,0.491,0.746,0.476,0.918,0.663,0.307,0.543,0.509,�k�k��,1.9,��
2024/04/04,16:30,0.492,0.746,0.474,0.920,0.660,0.309,0.544,0.510,�쓌,0.9,��
2024/04/04,16:40,0.491,0.747,0.474,0.920,0.661,0.308,0.543,0.510,���쓌,1.5,��
2024/04/04,16:50,0.491,0.748,0.474,0.920,0.662,0.309,0.544,0.510,�쓌,0.8,��
2024/04/04,17:00,0.490,0.748,0.474,0.919,0.663,0.310,0.543,0.510,��쓌,0.9,��
2024/04/04,17:10,0.491,0.749,0.475,0.920,0.661,0.309,0.545,0.510,��,0.9,��
2024/04/04,17:20,0.491,0.749,0.474,0.921,0.662,0.309,0.545,0.510,���k��,1.2,��
2024/04/04,17:30,0.492,0.751,0.474,0.920,0.662,0.310,0.544,0.511,-,CALM,��
2024/04/04,17:40,0.492,0.752,0.475,0.918,0.662,0.309,0.543,0.510,��,2.3,��
2024/04/04,17:50,0.493,0.749,0.475,0.920,0.661,0.309,0.544,0.510,���k��,5.4,��
2024/04/04,18:00,0.494,0.751,0.476,0.921,0.662,0.309,0.543,0.511,���k��,4.1,��
2024/04/04,18:10,0.493,0.749,0.476,0.922,0.664,0.309,0.543,0.510,���k��,5.4,��
2024/04/04,18:20,0.495,0.750,0.477,0.922,0.664,0.310,0.543,0.512,��,6.3,��
2024/04/04,18:30,0.491,0.749,0.475,0.921,0.665,0.310,0.542,0.512,��,5.7,��
2024/04/04,18:40,0.494,0.751,0.477,0.922,0.665,0.310,0.543,0.512,��,3.5,��
2024/04/04,18:50,0.493,0.748,0.478,0.922,0.665,0.310,0.543,0.513,�k��,3.4,��
2024/04/04,19:00,0.495,0.751,0.476,0.923,0.664,0.310,0.543,0.513,�k��,2.9,��
2024/04/04,19:10,0.493,0.752,0.476,0.921,0.663,0.310,0.543,0.512,�k��,3.8,��
2024/04/04,19:20,0.493,0.749,0.477,0.923,0.665,0.310,0.544,0.514,�k��,4.8,��
2024/04/04,19:30,0.494,0.750,0.476,0.924,0.665,0.310,0.545,0.512,���k��,5.3,��
2024/04/04,19:40,0.495,0.750,0.475,0.923,0.664,0.310,0.544,0.514,���k��,5.4,��
2024/04/04,19:50,0.494,0.751,0.476,0.922,0.666,0.310,0.544,0.512,�k��,5.8,��
2024/04/04,20:00,0.495,0.751,0.477,0.923,0.664,0.309,0.543,0.515,�k��,7.2,��
2024/04/04,20:10,0.493,0.749,0.476,0.923,0.665,0.311,0.544,0.512,�k��,6.8,��
2024/04/04,20:20,0.494,0.751,0.475,0.924,0.664,0.310,0.543,0.512,�k��,6.5,��
2024/04/04,20:30,0.494,0.751,0.476,0.925,0.667,0.310,0.544,0.511,�k��,7.3,��
2024/04/04,20:40,0.495,0.750,0.476,0.920,0.665,0.310,0.544,0.514,�k��,8.7,��
2024/04/04,20:50,0.494,0.751,0.476,0.921,0.666,0.309,0.545,0.512,�k��,7.0,��
2024/04/04,21:00,0.493,0.751,0.475,0.924,0.664,0.310,0.543,0.513,�k��,5.3,��
2024/04/04,21:10,0.493,0.751,0.476,0.922,0.665,0.309,0.544,0.513,�k��,5.0,��
2024/04/04,21:20,0.494,0.751,0.478,0.923,0.664,0.310,0.544,0.511,�k��,4.3,��
2024/04/04,21:30,0.492,0.751,0.477,0.922,0.665,0.309,0.544,0.512,�k��,5.4,��
2024/04/04,21:40,0.494,0.753,0.476,0.923,0.664,0.308,0.543,0.511,�k��,5.6,��
2024/04/04,21:50,0.494,0.751,0.476,0.923,0.664,0.308,0.544,0.513,�k��,4.7,��
2024/04/04,22:00,0.494,0.751,0.476,0.922,0.665,0.308,0.544,0.514,�k��,3.8,��
2024/04/04,22:10,0.493,0.752,0.476,0.925,0.665,0.308,0.544,0.512,�k��,4.2,��
2024/04/04,22:20,0.493,0.751,0.475,0.924,0.664,0.307,0.545,0.512,�k��,4.4,��
2024/04/04,22:30,0.493,0.751,0.475,0.922,0.663,0.310,0.545,0.510,�k��,4.5,��
2024/04/04,22:40,0.492,0.750,0.476,0.922,0.665,0.308,0.544,0.512,�k��,4.0,��
2024/04/04,22:50,0.493,0.750,0.475,0.923,0.664,0.307,0.544,0.511,�k��,4.2,��
2024/04/04,23:00,0.493,0.749,0.474,0.924,0.665,0.310,0.545,0.511,�k��,5.4,��
2024/04/04,23:10,0.494,0.750,0.475,0.922,0.663,0.309,0.545,0.512,�k��,6.1,��
2024/04/04,23:20,0.493,0.750,0.476,0.920,0.664,0.309,0.545,0.511,�k��,5.2,��
2024/04/04,23:30,0.493,0.752,0.476,0.923,0.665,0.307,0.545,0.512,�k��,5.5,��
2024/04/04,23:40,0.495,0.749,0.476,0.924,0.664,0.308,0.544,0.511,�k��,4.3,��
2024/04/04,23:50,0.495,0.749,0.474,0.923,0.665,0.308,0.546,0.510,�k��,4.0,��
